Content
SEND FEEDBACK

Daily
Averages
Monthly
Summary
United States of America

PUT IN BAY, OHIO


Home > North America > United States > Ohio
Elevation: 171 meters     Latitude: 41 39N     Longitude: 082 48W

WEATHER
 
SELECT A DAY
Number of Records: 123,030;   Date Range: 12/10/00 - 9/15/14
 
SHARE

PRINT THIS DATA

[ ← Previous Day ]
WEATHER ALMANAC - 17 JANUARY, 2013
[ Next Day → ]
[ °F ]   °C
Weather ElementAverageHighLow
Temperature-0.2 °C2.4 °C (4:00 pm)-6.4 °C (11:00 pm)
Dewpoint-5.8 °C-2.3 °C (3:00 am)-15.5 °C (11:00 pm)
Humidity64.8 %78 % (2:00 am)45 % (1:00 pm)
Barometer1021 hPa1026.8 hPa (11:00 pm)1015.6 hPa (1:00 am)
Wind Speed11.3 km/h22.2 km/h (9:00 pm)
Wind Gust37 km/h (9:00 pm)
Weather ElementAverage
Wind DirectionWNW (288.5 °)

Weather ElementTotal
Precipitation---
Heating Degree Days20.3 (Base 18.3)
Averaged from 26 records on 17 January, 2013
WEATHER CONDITIONS BREAKOUT
WIND DIRECTION BREAKOUT
WEATHER BY HOUR - 17 JANUARY, 2013
[ °F ]   °C
Local TimeTemperatureDewpointHumidityBarometerVisibilityWind DirectionWind SpeedGust SpeedPrecipitationEventsConditions
1:00 AM0.6 °C-2.8 °C70 %1015.6 hPaWest (260°)14.8 km/h
1:00 AM0.8 °C-2.8 °C77 %1015.6 hPaWest (260°)14.8 km/h
2:00 AM0.9 °C-2.6 °C78 %1016.6 hPaWest (260°)13 km/h
3:00 AM1.1 °C-2.3 °C78 %1017.6 hPaWest (270°)13 km/h
4:00 AM1.2 °C-2.3 °C78 %1017.9 hPaWest (280°)7.4 km/h
5:00 AM1.4 °C-2.6 °C75 %1017.9 hPaWest (280°)9.3 km/h
6:00 AM1.1 °C-2.5 °C77 %1019.3 hPaWNW (290°)3.7 km/h
7:00 AM1.1 °C-3.3 °C64 %1020 hPaWNW (300°)7.4 km/h
7:00 AM1 °C-3.1 °C74 %1020 hPaWNW (300°)7.4 km/h
8:00 AM-0.3 °C-3.7 °C78 %1020.7 hPaNW (310°)5.6 km/h
9:00 AM-0.2 °C-4.2 °C75 %1021.3 hPaNW (320°)3.7 km/h
10:00 AM-0.1 °C-4 °C75 %1022 hPaNW (310°)3.7 km/h
11:00 AM-0.4 °C-4.1 °C76 %1022.7 hPaNNE (30°)7.4 km/h
12:00 PM1 °C-4.9 °C65 %1022 hPaNW (310°)7.4 km/h
1:00 PM1.1 °C-6.1 °C45 %1021 hPaWNW (300°)9.3 km/h
2:00 PM1.4 °C-6.4 °C57 %1020.3 hPaNW (320°)9.3 km/h
3:00 PM2.3 °C-6.2 °C54 %1019.6 hPaWNW (300°)13 km/h
4:00 PM2.4 °C-6.3 °C53 %1020 hPaWNW (290°)13 km/h
5:00 PM1.3 °C-6.9 °C55 %1020.7 hPaNW (320°)11.1 km/h
6:00 PM-0.4 °C-8.2 °C56 %1021.7 hPaNW (310°)11.1 km/h
7:00 PM-1.5 °C-9 °C57 %1023.4 hPaNW (310°)16.7 km/h27.8 km/h
7:00 PM-1.7 °C-8.9 °C45 %1023.4 hPaNW (310°)16.7 km/h
8:00 PM-2.7 °C-10 °C58 %1024.4 hPaNW (310°)13 km/h
9:00 PM-3.4 °C-10.2 °C60 %1025.4 hPaWNW (300°)22.2 km/h37 km/h
10:00 PM-5.3 °C-12.7 °C57 %1026.1 hPaNW (320°)18.5 km/h33.3 km/h
11:00 PM-6.4 °C-15.5 °C49 %1026.8 hPaNNW (330°)18.5 km/h31.5 km/h
Hourly data recorded from CXHA, located 0 kilometers away from Put In Bay, Ohio







STORIES FROM OUR PARTNERS